Location: A O Calhoun Middle School
(33.2198°N, 97.1397°W)
Time: 16:57:06
(UTC+00:00)

Nadezhda 4 Rocket - Pass Details

Date: 03 July 2022
Orbit: 950 x 991 km, 82.9° (Epoch: 16 August)

Event Time Altitude Azimuth Distance (km) Brightness Sun altitude
Rises 10:50:44 0° 151° (SSE) 3,652 7.0 -6.8°
Reaches altitude 10° 10:53:41 10° 139° (SE) 2,702 6.5 -6.3°
Maximum altitude 10:58:32 25° 86° (E) 1,844 6.4 -5.4°
Drops below altitude 10° 11:03:22 10° 34° (NE) 2,692 7.6 -4.6°
Sets 11:06:17 0° 22° (NNE) 3,637 8.0 -4.0°
